Vertical_Velocity
0 -1 1 1 -12 -7 -1 -6 -0 -0 -3 1 2 -0 -4 1 -2 -3 2 4 2 2 4 -1 19 -4 -9 4 4 -2 1 -1 -1 -1 0 -1 0 1 2 -1 1 -2 -2 1 4 2 0 0 1
-0 -0 -0 -1 -8 -2 -5 -2 -0 -1 -2 2 -2 1 -1 2 -2 1 -3 -1 4 4 3 5 4 8 -1 -2 3 -1 -0 -2 -0 -1 -1 -0 1 -1 -2 1 -1 1 3 -1 -0 3 2 -1 1
-3 -0 0 -4 -1 -3 -4 -1 1 2 4 -2 -1 -1 1 6 2 -0 5 -2 2 1 -4 14 -4 9 -0 -3 4 1 1 -1 -0 1 -1 -3 -1 -1 -0 0 -2 0 -0 4 3 -4 2 0 -2
-2 0 -2 -7 -1 -5 -3 -2 -0 1 3 2 -1 -4 2 -3 0 -4 -1 3 -2 -0 -3 0 9 6 -5 4 1 1 0 -2 -1 -2 -2 0 -2 -1 -2 -1 0 -2 2 -1 2 0 0 -1 -3
-2 -1 -3 -1 -2 -2 -1 -2 -1 -0 0 2 2 3 -1 -0 0 4 1 -0 2 0 -1 -3 5 -5 2 0 0 1 1 0 -1 -1 1 -0 -2 -2 -2 1 1 1 -3 -0 -2 -1 1 -1 -1
-3 -0 -4 -1 -2 -2 -1 2 1 -0 2 4 -2 0 1 4 4 -0 -1 2 1 2 -1 4 3 5 -3 1 -1 -1 -1 -4 -1 2 -0 0 2 1 -0 -1 0 0 2 -1 0 -3 -1 -1 -1
-5 -3 -2 -0 -1 -2 1 1 -2 0 0 1 -2 -2 4 2 1 -3 -1 -2 -6 -5 -2 -2 -3 -4 -1 1 -1 1 1 -0 2 -1 1 1 1 -1 1 -0 1 -0 2 -4 1 1 0 1 -1
-2 -5 -1 -1 -0 -3 0 -0 1 -0 2 6 5 -2 -3 -4 1 -0 2 4 4 1 -1 -5 -4 -3 -3 -2 2 2 1 2 1 2 -1 1 0 -2 0 0 3 -1 2 1 -3 1 -2 -2 3
2 -6 -1 -2 0 -4 0 -1 2 1 -1 -1 1 -2 -0 -3 1 1 -2 -1 0 2 1 2 2 2 1 -1 -1 -1 -1 -3 -0 0 2 3 -1 1 0 -0 2 -1 2 3 -3 -2 2 -0 -1
-5 -3 -4 -2 -0 -0 1 -0 -2 -2 0 -1 -0 3 6 -1 -1 -0 3 3 3 -0 -1 -2 2 1 1 -3 1 1 -2 -1 -1 -5 -2 1 0 1 0 -1 1 -1 0 2 2 -1 -1 0 -1
1 -3 -1 -2 -0 1 -0 1 1 -1 -0 -4 -11 -6 0 -0 3 2 2 2 -2 -4 -3 -1 -2 -1 -1 1 5 1 -1 2 -2 -2 -1 -4 -3 -0 -1 1 -1 2 0 1 2 2 -0 -1 -1
-1 0 1 -1 0 -1 0 1 0 0 -1 3 3 10 -0 -1 -1 1 -1 -1 2 3 3 1 -0 -2 -1 -2 -3 -2 -1 -2 -2 -1 1 1 -1 -2 -5 -3 0 -2 0 -2 1 1 1 0 -1
1 -1 0 1 0 -1 2 -1 -1 -1 -1 2 0 1 -2 -1 -3 1 1 -1 0 1 1 1 -1 -0 2 -2 1 -2 -5 -1 -0 -3 -4 -3 0 0 0 -1 -5 -4 0 -1 -1 -0 0 1 0
0 0 -4 -3 -2 -1 1 -2 2 0 -0 1 3 3 4 1 -1 1 3 2 0 -0 -2 -3 -2 -0 1 1 1 0 1 -4 -2 -1 1 -4 -3 -3 -1 -0 -0 -2 -5 -2 -2 -1 -1 -0 -2
-1 -2 -3 -2 -2 -1 3 -1 -2 0 2 1 2 -0 1 4 4 5 4 3 6 2 -2 -1 -0 -1 1 -2 -2 -0 -2 0 -2 -3 -2 -1 -4 -2 -2 -2 -1 -2 -2 -3 -4 -2 0 -1 1
-2 -4 -2 -5 -2 -0 -0 -9 -2 4 -2 1 3 3 4 4 2 6 5 5 3 3 1 -2 -3 -1 -2 -1 -0 -2 -1 -1 -2 -3 -2 -4 -1 -3 -3 -2 -2 -3 -2 -2 -4 -4 -3 -2 -2
-3 -1 0 -7 0 -0 -4 -3 -2 6 8 3 7 7 7 3 4 4 4 2 0 -1 -3 -1 -4 -3 -1 -1 -4 -2 -3 -1 -2 -1 -1 -1 -2 -2 -3 -3 -3 -1 -1 -3 0 -3 -4 -3 -1
-1 -0 -1 -0 -6 -3 -1 -2 -1 -0 0 1 0 0 0 -0 -0 0 1 0 -1 -2 -0 1 0 -1 -3 -3 -1 -2 -2 -3 -3 -2 -3 -3 -2 -1 -1 -3 -2 -3 -2 -1 -2 -2 -2 -4 -2
1 1 0 -2 -2 1 -1 -0 -2 -1 2 1 2 1 -1 2 4 6 3 0 -0 -0 -1 -0 2 0 -0 -0 -1 1 -0 -1 0 -1 -2 -1 -3 -3 -4 -3 -3 -2 -4 -3 -4 -3 -1 -7 -1
1 1 -2 -3 -0 2 -1 -4 -3 0 -3 -2 2 2 3 3 6 4 2 2 1 -2 -3 -1 -2 -2 -0 2 -1 -2 -1 -0 -2 -2 -0 -1 -1 -4 -4 -4 -3 -4 -1 -4 -4 -1 -4 -3 -1
-1 -1 -1 -3 -1 -1 -0 -4 -1 1 1 2 7 7 4 -3 -4 0 2 0 -2 -2 -2 2 2 -1 1 -3 -3 -1 1 0 1 1 1 -1 -2 -2 -3 -3 -3 -2 -3 -1 -2 -2 1 -2 -4
1 -1 -1 0 -2 -4 -4 -7 -2 -1 0 -1 4 11 4 -0 4 3 1 -0 1 -3 -2 -3 -0 1 -0 -4 -1 1 0 0 -2 -1 -0 -4 -2 -0 -3 -5 -3 -3 -4 -3 -3 -1 -0 1 -5
-5 -1 -1 -0 -0 -1 -2 2 -8 -1 -2 -0 1 1 6 6 1 -3 -1 -2 -2 -0 4 -1 -0 -1 0 -1 0 -4 3 -1 -0 -2 -2 0 -5 2 -2 -4 -2 -0 -7 -1 -0 -2 -0 -1 -0
-1 -1 -2 -1 -1 -1 -5 -5 -6 -2 -2 1 2 2 -2 -3 0 3 4 4 4 -4 -2 1 1 1 -1 -1 -0 0 -3 -3 -2 2 3 -1 -1 -4 -0 -0 -2 -2 -0 -6 -1 -4 -1 -2 1
-0 -3 -4 -5 -5 -6 -0 2 -9 -1 -1 -3 -2 2 -0 -1 -1 -2 -2 -0 -3 0 -5 -1 1 -1 -1 -3 -3 -2 -3 3 -2 -2 -4 -1 -0 -1 1 -3 -2 -3 -4 -2 -3 -1 -3 -3 -2
-2 -7 -6 -2 -2 -4 -1 -2 -13 1 1 -0 -0 -2 1 -2 -1 -3 -4 -2 5 -3 -0 2 0 1 -2 -4 -2 -2 -2 -1 -1 1 -0 -2 -2 -3 -2 -3 -3 -1 -1 -0 1 -0 -1 -2 -1
-2 -2 -9 -2 -1 -1 -4 -4 -4 1 1 2 1 4 1 0 5 14 -0 0 3 5 -2 -4 -1 1 -1 -5 -2 -2 -2 1 -3 0 -2 -3 -1 1 -0 -2 -1 -1 1 -0 1 0 -5 -4 2
-1 -2 -7 -3 -0 -0 -3 -1 -6 1 -1 -0 -0 -2 1 1 1 -0 -1 -0 0 1 -1 2 1 -4 -1 -2 -2 1 -3 -1 -2 2 -4 -2 -1 2 -1 -1 -1 -0 -0 0 0 -0 -4 0 -0
-5 -2 -2 -3 -3 -3 -2 -11 -5 -5 -4 -4 -4 -2 -1 -0 -1 1 5 5 0 -1 1 -1 0 -1 -3 -0 -0 -1 -2 -1 0 -1 -2 -1 0 1 -0 -2 -2 -1 -1 -1 -1 -1 -3 -3 1
-0 -1 -2 -4 -4 -1 -4 -17 0 -2 -2 -0 -3 -2 -1 2 1 0 -0 -0 1 3 1 -2 1 -2 -0 -0 -1 -1 -2 -2 1 -2 -1 -0 1 0 -1 -1 -1 -1 -2 -1 1 -4 -4 -2 2
Height
1498 1497 1495 1496 1507 1513 1516 1503 1489 1485 1487 1486 1486 1488 1492 1500 1500 1513 1509 1511 1513 1514 1513 1513 1514 1520 1521 1523 1521 1522 1523 1523 1523 1523 1524 1525 1525 1525 1525 1526 1526 1526 1526 1526 1526 1526 1525 1525 1526
1497 1496 1496 1495 1514 1526 1517 1495 1489 1484 1487 1487 1487 1493 1495 1503 1504 1506 1509 1510 1512 1513 1516 1514 1515 1517 1520 1521 1522 1521 1522 1523 1523 1522 1522 1523 1524 1524 1524 1525 1525 1526 1526 1525 1525 1525 1525 1525 1524
1496 1495 1496 1502 1522 1523 1514 1492 1489 1490 1486 1488 1492 1495 1500 1505 1506 1508 1509 1511 1512 1513 1515 1515 1520 1518 1519 1521 1522 1521 1521 1522 1522 1521 1521 1521 1522 1522 1523 1523 1523 1523 1524 1524 1524 1523 1523 1523 1523
1496 1496 1499 1509 1512 1503 1496 1486 1488 1493 1491 1492 1493 1499 1503 1507 1508 1510 1511 1512 1514 1514 1516 1517 1518 1516 1520 1520 1519 1520 1521 1521 1521 1521 1520 1520 1520 1521 1521 1521 1520 1520 1520 1520 1521 1521 1521 1521 1521
1496 1496 1509 1512 1507 1496 1488 1483 1486 1489 1490 1493 1495 1506 1507 1508 1509 1510 1512 1513 1514 1515 1516 1516 1516 1517 1518 1518 1518 1519 1520 1520 1520 1521 1520 1520 1520 1519 1519 1519 1519 1518 1517 1517 1518 1518 1519 1518 1518
1495 1497 1515 1518 1506 1491 1487 1483 1482 1487 1489 1491 1493 1499 1508 1508 1509 1510 1512 1512 1513 1514 1516 1517 1516 1516 1517 1518 1518 1519 1519 1519 1520 1519 1519 1519 1519 1519 1518 1517 1516 1515 1514 1514 1515 1515 1515 1514 1514
1496 1504 1512 1508 1502 1495 1487 1485 1485 1488 1489 1493 1492 1500 1507 1507 1508 1510 1511 1511 1513 1515 1516 1517 1517 1517 1518 1519 1519 1519 1518 1519 1518 1518 1519 1518 1518 1517 1517 1515 1514 1514 1512 1511 1512 1511 1510 1510 1509
1495 1500 1507 1506 1503 1497 1488 1487 1489 1489 1491 1493 1492 1497 1504 1502 1506 1509 1510 1511 1512 1513 1514 1516 1517 1518 1518 1519 1519 1518 1518 1518 1519 1518 1517 1516 1516 1515 1514 1513 1512 1511 1511 1508 1508 1507 1506 1506 1506
1493 1507 1515 1503 1497 1492 1489 1489 1489 1489 1490 1492 1492 1492 1494 1500 1504 1506 1509 1511 1513 1514 1515 1517 1517 1517 1518 1518 1517 1517 1516 1516 1516 1516 1516 1516 1514 1513 1513 1510 1509 1508 1507 1505 1504 1504 1502 1501 1501
1495 1508 1504 1494 1491 1489 1488 1487 1489 1491 1491 1493 1492 1492 1494 1498 1502 1506 1508 1510 1511 1513 1514 1515 1516 1516 1516 1517 1516 1516 1515 1514 1514 1515 1515 1514 1512 1510 1509 1508 1506 1504 1503 1501 1499 1499 1498 1496 1496
1496 1503 1494 1491 1490 1489 1488 1488 1488 1489 1491 1485 1485 1490 1495 1499 1504 1507 1509 1511 1511 1513 1514 1515 1515 1515 1516 1516 1515 1514 1514 1512 1512 1513 1512 1511 1509 1507 1505 1504 1502 1500 1498 1497 1494 1493 1492 1491 1490
1498 1493 1494 1491 1490 1488 1488 1487 1486 1487 1484 1484 1486 1487 1491 1498 1502 1505 1508 1510 1512 1512 1513 1514 1514 1515 1515 1514 1514 1514 1512 1511 1511 1510 1509 1507 1505 1503 1500 1499 1496 1494 1493 1491 1489 1487 1485 1484 1483
1496 1493 1491 1490 1489 1488 1487 1486 1485 1484 1483 1484 1488 1491 1494 1499 1503 1506 1507 1508 1510 1512 1513 1513 1513 1513 1512 1512 1511 1510 1510 1509 1508 1507 1505 1504 1501 1499 1497 1494 1492 1489 1487 1484 1482 1480 1478 1476 1476
1494 1493 1489 1487 1485 1485 1484 1484 1484 1483 1484 1486 1489 1491 1495 1498 1501 1504 1504 1506 1509 1511 1511 1512 1514 1514 1513 1513 1511 1510 1508 1507 1507 1504 1502 1501 1499 1496 1493 1490 1488 1485 1483 1479 1476 1472 1469 1468 1466
1493 1494 1488 1484 1483 1481 1480 1485 1483 1480 1483 1485 1488 1491 1495 1499 1503 1505 1506 1506 1507 1508 1510 1511 1512 1512 1512 1511 1510 1509 1507 1505 1503 1502 1500 1498 1495 1493 1489 1486 1482 1479 1477 1474 1471 1468 1464 1461 1458
1496 1496 1502 1487 1483 1482 1482 1490 1479 1480 1480 1484 1487 1490 1494 1499 1502 1505 1507 1508 1509 1509 1509 1509 1510 1510 1510 1509 1508 1507 1506 1504 1502 1500 1498 1496 1493 1490 1486 1482 1477 1473 1469 1466 1462 1459 1456 1452 1449
1504 1506 1499 1493 1486 1484 1484 1487 1481 1480 1483 1484 1488 1491 1495 1498 1503 1505 1507 1509 1509 1511 1511 1509 1508 1510 1509 1507 1507 1506 1504 1503 1501 1499 1496 1494 1491 1487 1484 1480 1475 1470 1465 1461 1456 1453 1450 1446 1443
1506 1503 1502 1501 1489 1485 1486 1485 1483 1482 1484 1487 1489 1493 1496 1499 1501 1504 1506 1507 1509 1510 1509 1508 1506 1506 1507 1506 1505 1503 1502 1501 1499 1497 1494 1491 1488 1484 1480 1476 1472 1466 1461 1456 1453 1449 1446 1443 1439
1500 1503 1504 1496 1488 1488 1485 1486 1483 1480 1483 1485 1488 1491 1495 1498 1501 1502 1504 1506 1508 1509 1509 1508 1507 1505 1506 1505 1505 1504 1502 1500 1499 1496 1494 1491 1487 1484 1480 1475 1470 1464 1459 1454 1450 1446 1440 1441 1438
1499 1501 1500 1492 1486 1486 1486 1487 1479 1476 1475 1474 1478 1485 1488 1492 1497 1500 1502 1504 1507 1508 1509 1508 1506 1506 1506 1506 1505 1504 1503 1501 1498 1496 1493 1490 1486 1483 1479 1475 1470 1463 1458 1454 1450 1446 1442 1436 1439
1496 1497 1494 1493 1489 1486 1487 1487 1476 1472 1474 1476 1479 1481 1487 1489 1493 1498 1501 1503 1506 1507 1508 1508 1506 1504 1505 1504 1505 1505 1503 1501 1499 1497 1494 1490 1487 1483 1478 1475 1470 1465 1460 1454 1448 1445 1442 1437 1439
1493 1485 1488 1491 1497 1502 1491 1505 1489 1479 1483 1484 1479 1478 1482 1488 1493 1496 1499 1500 1504 1504 1507 1507 1506 1504 1503 1505 1505 1505 1503 1501 1498 1496 1492 1491 1487 1483 1478 1475 1471 1465 1460 1456 1450 1447 1440 1440 1436
1488 1484 1488 1489 1496 1499 1498 1504 1490 1484 1484 1489 1490 1490 1490 1490 1494 1498 1500 1501 1502 1503 1504 1504 1505 1505 1503 1503 1503 1504 1504 1501 1498 1496 1493 1490 1486 1482 1478 1476 1472 1465 1462 1457 1453 1446 1443 1439 1436
1482 1486 1491 1496 1500 1508 1495 1498 1491 1488 1484 1488 1489 1489 1491 1494 1498 1500 1501 1500 1499 1500 1503 1504 1503 1503 1504 1504 1503 1502 1501 1501 1500 1497 1491 1490 1486 1482 1479 1475 1471 1468 1463 1458 1453 1448 1444 1440 1435
1483 1495 1514 1512 1513 1508 1486 1491 1487 1484 1482 1480 1484 1488 1492 1494 1495 1496 1498 1499 1499 1498 1500 1503 1502 1501 1502 1503 1503 1502 1502 1499 1498 1495 1492 1490 1486 1483 1479 1475 1472 1468 1464 1460 1455 1450 1445 1440 1435
1485 1486 1503 1499 1502 1501 1489 1493 1488 1485 1483 1482 1483 1486 1488 1490 1492 1493 1495 1497 1498 1497 1499 1500 1502 1501 1501 1502 1503 1502 1502 1499 1498 1494 1492 1489 1486 1483 1479 1476 1472 1469 1465 1461 1457 1451 1445 1441 1437
1484 1488 1479 1489 1498 1508 1497 1493 1488 1486 1487 1486 1485 1485 1483 1482 1482 1487 1491 1493 1495 1495 1496 1500 1500 1500 1500 1500 1502 1501 1501 1499 1498 1494 1492 1490 1488 1484 1480 1477 1474 1470 1466 1462 1457 1452 1448 1443 1439
1479 1480 1492 1497 1497 1502 1496 1487 1495 1486 1484 1485 1486 1482 1481 1483 1485 1487 1490 1493 1494 1495 1495 1497 1497 1498 1499 1500 1501 1500 1500 1498 1498 1495 1493 1492 1489 1486 1483 1479 1476 1472 1467 1463 1459 1454 1451 1448 1442
1485 1489 1489 1492 1499 1499 1503 1493 1474 1471 1474 1477 1476 1476 1478 1480 1480 1481 1485 1488 1489 1492 1492 1495 1495 1496 1498 1499 1499 1499 1499 1499 1498 1496 1494 1492 1490 1486 1483 1481 1478 1474 1469 1465 1461 1457 1454 1451 1447
1481 1484 1488 1508 1491 1494 1508 1488 1469 1466 1467 1470 1471 1473 1476 1478 1478 1479 1481 1484 1487 1488 1489 1491 1493 1495 1497 1498 1498 1499 1499 1499 1498 1497 1496 1493 1490 1487 1485 1482 1479 1475 1472 1468 1464 1460 1458 1454 1448